Location: Mahannah Oil Field
(37.4664°N, 96.6003°W)
Time: 02:21:51
(UTC+00:00)

Tiros 1 despin weight - Pass Details

Date: 26 January 2021
Orbit: 593 x 642 km, 48.2° (Epoch: 02 March)

Event Time Altitude Azimuth Distance (km) Brightness Sun altitude
Rises 01:21:12 0° 306° (NW) 2,853 ? -19.4°
Reaches altitude 10° 01:23:33 10° 311° (NW) 1,941 ? -19.9°
Maximum altitude 01:27:54 51° 28° (NNE) 752 ? -20.8°
Enters shadow 01:28:08 50° 41° (NE) 758 ? -20.8°
Drops below altitude 10° 01:32:11 10° 105° (ESE) 1,919 - -21.6°
Sets 01:34:30 0° 110° (ESE) 2,816 - -22.1°
